Location: Newark
(42.8481°N, 0.4872°E)
Time: 14:15:44
(UTC+00:00)

Vanguard 2 - Visible Passes

Search period start: 30 October 2020 00:00
Search period end: 09 November 2020 00:00
Orbit: 554 x 2937 km, 32.9° (Epoch: 30 October)

Date Brightness Start Highest point End Pass type
(mag) Time Alt. Az. Time Alt. Az. Time Alt. Az.
30 Oct 10.3 18:36:11 10° SW 18:47:10 45° SSE 18:55:02 29° ESE visible
30 Oct 10.2 20:44:07 10° WSW 20:56:25 58° SSW 20:56:25 58° SSW visible
30 Oct 11.4 22:54:08 10° W 22:57:48 21° W 22:57:48 21° W visible
31 Oct 10.2 18:53:31 10° SW 19:04:45 50° SSE 19:11:34 34° ESE visible
31 Oct 10.3 21:01:52 10° WSW 21:12:57 54° SW 21:12:57 54° SW visible
31 Oct 11.5 23:12:10 10° W 23:14:19 16° W 23:14:19 16° W visible
01 Nov 10.4 17:04:47 10° SSW 17:13:05 31° SE 17:25:00 10° E visible
01 Nov 10.1 19:11:00 10° WSW 19:22:26 54° SSE 19:28:05 40° ESE visible
01 Nov 10.5 21:19:41 10° W 21:29:27 48° SW 21:29:27 48° SW visible
01 Nov 11.7 23:30:19 10° W 23:30:50 11° W 23:30:50 11° W visible
02 Nov 10.2 17:21:44 10° SSW 17:30:25 37° SSE 17:43:12 10° E visible
02 Nov 10.1 19:28:36 10° WSW 19:40:12 56° S 19:44:35 46° SE visible
02 Nov 10.6 21:37:34 10° W 21:45:58 41° WSW 21:45:58 41° WSW visible
03 Nov 10.1 17:38:55 10° SW 17:47:53 43° SSE 17:59:43 14° E visible
03 Nov 10.0 19:46:17 10° WSW 19:58:00 57° S 20:01:06 51° SE visible
03 Nov 10.9 21:55:30 10° W 22:02:28 34° WSW 22:02:28 34° WSW visible
04 Nov 10.0 17:56:18 10° SW 18:05:28 47° SSE 18:16:14 18° E visible
04 Nov 10.1 20:04:02 10° WSW 20:15:51 56° S 20:17:37 54° SSE visible
04 Nov 11.1 22:13:31 10° W 22:19:00 27° WSW 22:19:00 27° WSW visible
05 Nov 9.9 18:13:48 10° WSW 18:23:08 51° SSE 18:32:46 23° ESE visible
05 Nov 10.1 20:21:50 10° W 20:33:42 53° S 20:34:09 53° S visible
05 Nov 11.3 22:31:41 10° W 22:35:32 21° WSW 22:35:32 21° WSW visible
06 Nov 9.9 18:31:24 10° WSW 18:40:53 53° S 18:49:20 27° ESE visible
06 Nov 10.2 20:39:41 10° W 20:50:43 49° SSW 20:50:43 49° SSW visible
06 Nov 11.5 22:50:03 10° W 22:52:07 15° W 22:52:07 15° W visible
07 Nov 9.9 18:49:04 10° WSW 18:58:40 53° S 19:05:57 31° ESE visible
07 Nov 10.4 20:57:37 10° W 21:07:20 43° SW 21:07:20 43° SW visible
08 Nov 9.8 16:59:33 10° SW 17:06:53 44° SSE 17:18:42 10° E visible
08 Nov 10.0 19:06:48 10° WSW 19:16:29 51° S 19:22:36 35° SE visible
08 Nov 10.7 21:15:40 10° W 21:24:00 35° SW 21:24:00 35° SW visible
